Retour au catalogue

STARLINK-11488

ActifCommunicationsVLEO
NORAD 62222·PAYLOAD·🇺🇸 United States

Lancé Dec 5, 2024 depuis Vandenberg Space Force Base

Loading…

Prochains Passages (prochaines 24 heures)

TLE

FraisSource: CelesTrak SupGP

Époque: Sep 15, 2026, 02:53 UTC

1 62222C 24231E   26258.12062500 -.00012622  00000+0 -10387-3 0  2589
2 62222  53.1572 247.5616 0001174  87.3730 217.4346 15.69737878    10

Suivez STARLINK-11488 en temps réel avec AllMySat

Download on the App Store